When you browse on this site, cookies collect data to enhance your experience and personalize the content and advertising you see.
Visit our Privacy Policy to learn more. By continuing to use the site, you agree to this use of cookies and data.
  • In Sweden
  • List of Countries
  • For 7 days
  • Water Temperature
  • Weather Map
  • Weather Widgets
  • user-avatar
    Login

    Hourly Weather San Miguel de Tucumán

    Today, 21 September, Saturday

    Time Temperature Precipitation Wind Pressure Humidity
    00:00 +11°C° 0 mm 1 mps 724 mmHg 24%
    01:00 +11°C° 0 mm 1 mps 724 mmHg 24%
    02:00 +10°C° 0 mm 1 mps 724 mmHg 25%
    03:00 +10°C° 0 mm 1 mps 724 mmHg 25%
    04:00 +10°C° 0 mm 1 mps 724 mmHg 26%
    05:00 +10°C° 0 mm 1 mps 723 mmHg 26%
    06:00 +12°C° 0 mm 1 mps 724 mmHg 24%
    07:00 +14°C° 0 mm 1 mps 724 mmHg 22%
    08:00 +15°C° 0 mm 1 mps 725 mmHg 20%
    09:00 +19°C° 0 mm 1 mps 725 mmHg 18%
    10:00 +21°C° 0 mm 2 mps 724 mmHg 16%
    11:00 +24°C° 0 mm 2 mps 724 mmHg 15%
    12:00 +25°C° 0 mm 2 mps 724 mmHg 15%
    13:00 +26°C° 0 mm 3 mps 723 mmHg 15%
    14:00 +27°C° 0 mm 3 mps 722 mmHg 15%
    15:00 +27°C° 0 mm 3 mps 722 mmHg 16%
    16:00 +27°C° 0 mm 3 mps 722 mmHg 18%
    17:00 +26°C° 0 mm 3 mps 722 mmHg 20%
    18:00 +24°C° 0 mm 2 mps 722 mmHg 26%
    19:00 +20°C° 0 mm 2 mps 722 mmHg 31%
    20:00 +18°C° 0 mm 1 mps 723 mmHg 37%
    21:00 +18°C° 0 mm 1 mps 723 mmHg 39%
    22:00 +16°C° 0 mm 1 mps 723 mmHg 41%
    23:00 +15°C° 0 mm 1 mps 724 mmHg 42%

    Tomorrow, 22 September, Sunday

    Time Temperature Precipitation Wind Pressure Humidity
    00:00 +15°C° 0 mm 1 mps 724 mmHg 43%
    01:00 +14°C° 0 mm 1 mps 724 mmHg 45%
    02:00 +14°C° 0 mm 1 mps 724 mmHg 46%
    03:00 +13°C° 0 mm 1 mps 724 mmHg 47%
    04:00 +13°C° 0 mm 1 mps 724 mmHg 48%
    05:00 +13°C° 0 mm 1 mps 724 mmHg 50%
    06:00 +14°C° 0 mm 1 mps 725 mmHg 46%
    07:00 +16°C° 0 mm 1 mps 725 mmHg 42%
    08:00 +19°C° 0 mm 1 mps 726 mmHg 37%
    09:00 +22°C° 0 mm 1 mps 726 mmHg 33%
    10:00 +24°C° 0 mm 2 mps 726 mmHg 29%
    11:00 +27°C° 0 mm 2 mps 726 mmHg 24%
    12:00 +28°C° 0 mm 3 mps 725 mmHg 23%
    13:00 +29°C° 0 mm 3 mps 724 mmHg 21%
    14:00 +30°C° 0 mm 4 mps 723 mmHg 20%
    15:00 +30°C° 0 mm 4 mps 723 mmHg 20%
    16:00 +29°C° 0 mm 4 mps 723 mmHg 21%
    17:00 +28°C° 0 mm 4 mps 722 mmHg 22%
    18:00 +26°C° 0 mm 3 mps 722 mmHg 27%
    19:00 +23°C° 0 mm 2 mps 722 mmHg 31%
    20:00 +20°C° 0 mm 2 mps 722 mmHg 35%
    21:00 +19°C° 0 mm 2 mps 723 mmHg 37%
    22:00 +18°C° 0 mm 2 mps 723 mmHg 39%
    23:00 +17°C° 0 mm 2 mps 723 mmHg 40%

    Day after tomorrow, 23 September, Monday

    Time Temperature Precipitation Wind Pressure Humidity
    00:00 +16°C° 0 mm 1 mps 722 mmHg 42%
    01:00 +16°C° 0 mm 1 mps 722 mmHg 44%
    02:00 +15°C° 0 mm 1 mps 721 mmHg 46%
    03:00 +14°C° 0 mm 1 mps 721 mmHg 47%
    04:00 +14°C° 0 mm 1 mps 721 mmHg 48%
    05:00 +13°C° 0 mm 1 mps 720 mmHg 49%
    06:00 +15°C° 0 mm 1 mps 721 mmHg 44%
    07:00 +18°C° 0 mm 1 mps 721 mmHg 39%
    08:00 +19°C° 0 mm 1 mps 722 mmHg 34%
    09:00 +21°C° 0 mm 2 mps 722 mmHg 30%
    10:00 +24°C° 0 mm 2 mps 722 mmHg 26%
    11:00 +26°C° 0 mm 2 mps 722 mmHg 22%
    12:00 +27°C° 0 mm 2 mps 722 mmHg 21%
    13:00 +28°C° 0 mm 3 mps 722 mmHg 20%
    14:00 +29°C° 0 mm 3 mps 722 mmHg 19%
    15:00 +29°C° 0 mm 3 mps 722 mmHg 19%
    16:00 +29°C° 0 mm 3 mps 722 mmHg 20%
    17:00 +29°C° 0 mm 3 mps 723 mmHg 20%
    18:00 +26°C° 0 mm 2 mps 724 mmHg 25%
    19:00 +23°C° 0 mm 2 mps 724 mmHg 30%
    20:00 +20°C° 0 mm 1 mps 725 mmHg 36%
    21:00 +20°C° 0 mm 1 mps 726 mmHg 37%
    22:00 +19°C° 0 mm 1 mps 727 mmHg 39%
    23:00 +19°C° 0 mm 1 mps 727 mmHg 40%

    24 September, Tuesday

    Time Temperature Precipitation Wind Pressure Humidity
    00:00 +18°C° 0 mm 1 mps 727 mmHg 42%
    01:00 +18°C° 0 mm 1 mps 727 mmHg 44%
    02:00 +16°C° 0 mm 1 mps 727 mmHg 46%
    03:00 +16°C° 0 mm 1 mps 727 mmHg 47%
    04:00 +15°C° 0 mm 1 mps 727 mmHg 49%
    05:00 +15°C° 0 mm 1 mps 727 mmHg 50%
    06:00 +18°C° 0 mm 1 mps 727 mmHg 45%
    07:00 +20°C° 0 mm 1 mps 728 mmHg 40%
    08:00 +22°C° 0 mm 1 mps 728 mmHg 36%
    09:00 +24°C° 0 mm 1 mps 728 mmHg 32%
    10:00 +26°C° 0 mm 2 mps 728 mmHg 27%
    11:00 +28°C° 0 mm 2 mps 728 mmHg 23%
    12:00 +29°C° 0 mm 2 mps 727 mmHg 22%
    13:00 +30°C° 0 mm 3 mps 727 mmHg 20%
    14:00 +31°C° 0 mm 3 mps 726 mmHg 19%
    15:00 +30°C° 0 mm 3 mps 725 mmHg 20%
    16:00 +30°C° 0 mm 3 mps 725 mmHg 20%
    17:00 +29°C° 0 mm 3 mps 724 mmHg 21%
    18:00 +26°C° 0 mm 2 mps 725 mmHg 25%
    19:00 +24°C° 0 mm 2 mps 725 mmHg 29%
    20:00 +21°C° 0 mm 1 mps 725 mmHg 33%
    21:00 +21°C° 0 mm 1 mps 726 mmHg 34%
    22:00 +20°C° 0 mm 1 mps 726 mmHg 35%
    23:00 +19°C° 0 mm 1 mps 726 mmHg 36%

    25 September, Wednesday

    Time Temperature Precipitation Wind Pressure Humidity
    00:00 +18°C° 0 mm 1 mps 726 mmHg 38%
    01:00 +18°C° 0 mm 1 mps 726 mmHg 39%
    02:00 +16°C° 0 mm 1 mps 726 mmHg 41%
    03:00 +16°C° 0 mm 1 mps 726 mmHg 42%
    04:00 +15°C° 0 mm 1 mps 726 mmHg 44%
    05:00 +15°C° 0 mm 1 mps 725 mmHg 45%
    06:00 +18°C° 0 mm 1 mps 726 mmHg 41%
    07:00 +20°C° 0 mm 1 mps 726 mmHg 37%
    08:00 +22°C° 0 mm 1 mps 727 mmHg 33%
    09:00 +24°C° 0 mm 1 mps 727 mmHg 28%
    10:00 +27°C° 0 mm 2 mps 727 mmHg 24%
    11:00 +30°C° 0 mm 2 mps 727 mmHg 19%
    12:00 +31°C° 0 mm 2 mps 726 mmHg 18%
    13:00 +33°C° 0 mm 3 mps 725 mmHg 17%
    14:00 +33°C° 0 mm 3 mps 724 mmHg 16%
    15:00 +33°C° 0 mm 3 mps 724 mmHg 16%
    16:00 +31°C° 0 mm 3 mps 723 mmHg 17%
    17:00 +30°C° 0 mm 3 mps 722 mmHg 17%
    18:00 +28°C° 0 mm 3 mps 722 mmHg 20%
    19:00 +25°C° 0 mm 2 mps 722 mmHg 23%
    20:00 +21°C° 0 mm 2 mps 722 mmHg 26%
    21:00 +20°C° 0 mm 2 mps 723 mmHg 28%
    22:00 +20°C° 0 mm 2 mps 723 mmHg 29%
    23:00 +19°C° 0 mm 2 mps 723 mmHg 30%

    26 September, Thursday

    Time Temperature Precipitation Wind Pressure Humidity
    00:00 +18°C° 0 mm 2 mps 722 mmHg 31%
    01:00 +18°C° 0 mm 1 mps 722 mmHg 32%
    02:00 +18°C° 0 mm 1 mps 721 mmHg 33%
    03:00 +16°C° 0 mm 1 mps 721 mmHg 34%
    04:00 +16°C° 0 mm 1 mps 721 mmHg 35%
    05:00 +15°C° 0 mm 1 mps 720 mmHg 36%
    06:00 +18°C° 0 mm 1 mps 721 mmHg 33%
    07:00 +20°C° 0 mm 1 mps 721 mmHg 29%
    08:00 +22°C° 0 mm 1 mps 721 mmHg 26%
    09:00 +25°C° 0 mm 1 mps 721 mmHg 22%
    10:00 +28°C° 0 mm 2 mps 721 mmHg 18%
    11:00 +32°C° 0 mm 2 mps 721 mmHg 15%
    12:00 +34°C° 0 mm 2 mps 720 mmHg 14%
    13:00 +35°C° 0 mm 3 mps 719 mmHg 13%
    14:00 +37°C° 0 mm 3 mps 718 mmHg 12%
    15:00 +36°C° 0 mm 3 mps 718 mmHg 13%
    16:00 +35°C° 0 mm 3 mps 717 mmHg 13%
    17:00 +34°C° 0 mm 3 mps 717 mmHg 14%
    18:00 +31°C° 0 mm 2 mps 717 mmHg 17%
    19:00 +28°C° 0 mm 2 mps 717 mmHg 20%
    20:00 +25°C° 0 mm 2 mps 717 mmHg 24%
    21:00 +24°C° 0 mm 2 mps 717 mmHg 24%
    22:00 +23°C° 0 mm 2 mps 717 mmHg 24%
    23:00 +23°C° 0 mm 2 mps 717 mmHg 24%
    Show more